Hourly Data Report for October 18, 2014

All times are specified in Local Standard Time (LST). Add 1 hour to adjust for Daylight Saving Time where and when it is observed.

PANGNIRTUNG
NUNAVUT

66°08'36.300" N
65°42'40.500" W
22.60 m
2403049
71826
WXP

Download Data

Hourly Data (October 2014)
Hourly Data Report for October 18, 2014
Temp Definition
°C
Dew Point Temp Definition
°C
Rel Hum Definition
%
Wind Dir Definition
10's deg

Wind Spd Definition
km/h
Visibility Definition
km
Stn Press Definition
kPa
Hmdx Definition


Wind Chill Definition


Weather Definition


TIME
00:00 -5.9 -10.7 69 9 12   100.97   -11 LegendNANA
01:00 -4.4 -9.6 67 12 13   100.96   -9 LegendNANA
02:00 -4.1 -9.5 66 11 9   100.96   -8 LegendNANA
03:00 -6.2 -11.1 69 10 15   100.93   -12 LegendNANA
04:00 -4.6 -10.1 65 8 10   100.94   -9 LegendNANA
05:00 -4.5 -11.0 60 12 9   100.93   -8 LegendNANA
06:00 -5.9 -12.4 60 10 5   100.95   -8 LegendNANA
07:00 -5.8 -12.0 62 11 6   100.97   -9 LegendNANA
08:00 -5.9 -11.8 63 0 1   101.00   -6 LegendNANA
09:00 -5.7 -12.0 61 8 8   100.99   -9 LegendNANA
10:00 -5.6 -11.8 62 10 15   100.99   -11 LegendNANA
11:00 -4.9 -11.6 60 11 13   100.97   -10 LegendNANA
12:00 -4.5 -11.9 56 10 6   100.96   -7 LegendNANA
13:00 -4.7 -11.5 59 11 6   100.96   -7 LegendNANA
14:00 -5.0 -11.1 62 19 1   101.00   -5 LegendNANA
15:00 -5.6 -11.1 66 18 2   101.02   -7 LegendNANA
16:00 -5.4 -10.4 68 21 4   101.06   -7 LegendNANA
17:00 -5.5 -9.0 77 21 7   101.08   -9 LegendNANA
18:00 -6.1 -9.3 78 20 6   101.10   -9 LegendNANA
19:00 -7.4 -10.7 77 21 3   101.14   -9 LegendNANA
20:00 -6.9 -10.5 76 16 3   101.17   -8 LegendNANA
21:00 -6.7 -10.2 76 13 6   101.16   -10 LegendNANA
22:00 -6.9 -10.4 76 15 4   101.18   -9 LegendNANA
23:00 -7.6 -10.4 80 23 5   101.20   -10 LegendNANA

Notes on Data Quality.

Legend

  • E = Estimated
  • M = Missing
  • NA = Not Available
  • ‡ = Partner data that is not subject to review by the National Climate Archives
Date modified: